Weather History for KRSW - January, 2013

Change the Weather History Date:

Monday, January 14, 2013

  Actual Average (KFMY) Record (KFMY)
Temperature  
Mean Temperature 70 °F 64 °F  
Max Temperature 80 °F 74 °F 86 °F (1989)
Min Temperature 61 °F 53 °F 31 °F (1981)
Degree Days  
Heating Degree Days 0 4  
Month to date heating degree days 56  
Since 1 July heating degree days 149  
Cooling Degree Days 6 3  
Month to date cooling degree days 41  
Year to date cooling degree days 41  
Growing Degree Days 20 (Base 50)    
Moisture  
Dew Point 60 °F    
Average Humidity 74    
Maximum Humidity 93    
Minimum Humidity 48    
Precipitation  
Precipitation 0.00 in 0.07 in 1.03 in (1995)
Month to date precipitation 0.89  
Year to date precipitation 0.89  
Sea Level Pressure  
Sea Level Pressure 30.14 in    
Wind  
Wind Speed 4 mph (ESE)    
Max Wind Speed 10 mph    
Max Gust Speed -    
Visibility 10 miles    
Events      
T = Trace of Precipitation, MM = Missing Value Source: NWS Daily Summary

Daily Weather History Graph

Daily Weather History Graph

Search for Another Location

Airport or City:

Trip Planner

Search our weather history database for the weather conditions in past years. The results will help you decide how hot, cold, wet, or windy it might be!

Date:

Astronomy

Jan. 14, 2013 Rise Set
Actual Time 7:16 AM EST 5:55 PM EST
Civil Twilight 6:51 AM EST 6:20 PM EST
Nautical Twilight 6:23 AM EST 6:49 PM EST
Astronomical Twilight 5:55 AM EST 7:17 PM EST
Moon 9:11 AM EST (1/14) 9:14 PM EST (1/14)
Length of Visible Light 11h 28m
Length of Day
10h 39m
Waxing Crescent, 11% of the Moon is Illuminated
Jan 14
Waxing Crescent
Jan 18
First Quarter
Jan 26
Full
Feb 3
Last Quarter
Feb 10
New

Hourly Weather History & Observations

Time (EST) Temp. Heat Index Dew Point Humidity Pressure Visibility Wind Dir Wind Speed Gust Speed Precip Events Conditions
12:53 AM 64.4 °F - 60.8 °F 88% 30.14 in 10.0 mi Calm Calm - N/A   Clear
1:53 AM 62.1 °F - 59.0 °F 90% 30.13 in 10.0 mi Calm Calm - N/A   Scattered Clouds
2:53 AM 63.0 °F - 60.1 °F 90% 30.13 in 10.0 mi ENE 3.5 mph - N/A   Mostly Cloudy
3:53 AM 63.0 °F - 60.1 °F 90% 30.13 in 10.0 mi NE 4.6 mph - N/A   Mostly Cloudy
4:53 AM 61.0 °F - 59.0 °F 93% 30.12 in 10.0 mi ENE 4.6 mph - N/A   Clear
5:53 AM 61.0 °F - 59.0 °F 93% 30.12 in 10.0 mi East 4.6 mph - N/A   Clear
6:53 AM 61.0 °F - 59.0 °F 93% 30.13 in 10.0 mi East 8.1 mph - N/A   Clear
7:53 AM 63.0 °F - 60.1 °F 90% 30.14 in 10.0 mi ESE 5.8 mph - N/A   Clear
8:53 AM 68.0 °F - 62.1 °F 81% 30.16 in 10.0 mi ESE 4.6 mph - N/A   Clear
9:53 AM 73.0 °F - 62.1 °F 68% 30.18 in 10.0 mi SE 6.9 mph - N/A   Clear
10:53 AM 75.0 °F - 61.0 °F 62% 30.17 in 10.0 mi SE 9.2 mph - N/A   Scattered Clouds
11:53 AM 78.1 °F - 61.0 °F 56% 30.14 in 10.0 mi SE 10.4 mph - N/A   Mostly Cloudy
12:53 PM 78.1 °F - 60.1 °F 54% 30.13 in 10.0 mi SE 9.2 mph - N/A   Scattered Clouds
1:53 PM 80.6 °F 81.5 °F 60.8 °F 51% 30.11 in 10.0 mi ESE 10.4 mph - N/A   Mostly Cloudy
2:53 PM 80.1 °F 80.7 °F 59.0 °F 48% 30.11 in 10.0 mi SE 8.1 mph - N/A   Mostly Cloudy
3:53 PM 78.1 °F - 59.0 °F 52% 30.11 in 10.0 mi SSE 4.6 mph - N/A   Partly Cloudy
4:53 PM 77.0 °F - 60.1 °F 56% 30.12 in 10.0 mi WSW 6.9 mph - N/A   Partly Cloudy
5:53 PM 73.9 °F - 61.0 °F 64% 30.14 in 10.0 mi WNW 4.6 mph - N/A   Clear
6:53 PM 73.0 °F - 61.0 °F 66% 30.16 in 10.0 mi Calm Calm - N/A   Mostly Cloudy
7:53 PM 71.1 °F - 61.0 °F 70% 30.15 in 10.0 mi ESE 3.5 mph - N/A   Partly Cloudy
8:53 PM 68.0 °F - 59.0 °F 73% 30.15 in 10.0 mi ESE 6.9 mph - N/A   Clear
9:53 PM 68.0 °F - 60.1 °F 76% 30.15 in 10.0 mi SE 4.6 mph - N/A   Clear
10:53 PM 66.0 °F - 60.1 °F 81% 30.15 in 10.0 mi SE 4.6 mph - N/A   Clear
11:53 PM 64.9 °F - 60.1 °F 84% 30.14 in 10.0 mi Calm Calm - N/A   Clear